Location: Wiesbaden
(50.0830°N, 8.2500°E)
Time: 22:16:47
(UTC+02:00)

ISS - Pass Details

Date: 21 September 2019
Orbit: 411 x 421 km, 51.6° (Epoch: 19 September)

Event Time Altitude Azimuth Distance (km) Brightness Sun altitude
Rises 20:34:03 0° 217° (SW) 2,334 0.3 -11.3°
Maximum altitude 20:39:09 26° 145° (SE) 840 -2.7 -12.1°
Enters shadow 20:40:17 22° 112° (ESE) 971 -2.5 -12.2°
